{"data":{"norad_id":63827,"intl_designator":"2025-092Z","name":"STARLINK-33891","alt_names":[],"object_type":"PAYLOAD","status":"ACTIVE","operator":null,"country":"US","launch_date":"2025-05-04","launch_site_code":"AFETR","launch_vehicle":null,"mission":null,"orbit_class":"UNKNOWN","rcs_meters":null,"size_class":null,"mass_kg":null,"dimensions":null,"purposes":["comms"],"wikipedia_slug":null,"has_3d_model":false,"image_url":null,"decayed_at":null,"tle_current":{"epoch":"2026-05-25T03:34:56.471808Z","epoch_age_seconds":72737,"freshness":"FRESH","line1":"1 63827U 25092Z   26145.14926472  .00018618  00000+0  68402-3 0  9993","line2":"2 63827  43.0007 101.1224 0001151 272.3099  87.7621 15.27597191 60243","mean_motion":15.27597191,"eccentricity":0.0001151,"inclination_deg":43.0007,"raan_deg":101.1224,"arg_perigee_deg":272.3099,"mean_anomaly_deg":87.7621,"bstar":0.00068402,"rev_number":6024,"period_min":94.265687871378,"perigee_km":482.20790388915,"apogee_km":483.78733707878,"semimajor_km":6861.134620484,"source":"CELESTRAK","updated_at":"2026-05-25T13:38:20.144320Z"}}}